Location: Appleton
(44.2618°N, 88.4157°W)
Time: 09:55:07
(UTC+00:00)

Vanguard 2 Rocket - All Passes

Search period start: 01 March 2021 00:00
Search period end: 11 March 2021 00:00
Orbit: 554 x 3325 km, 32.9° (Epoch: 28 February)

Date Brightness Start Highest point End Pass type
(mag) Time Alt. Az. Time Alt. Az. Time Alt. Az.
01 Mar - 10:16:55 10° SSW 10:23:08 30° SSE 10:32:53 10° E visible
01 Mar - 12:27:33 10° WSW 12:36:26 48° S 12:51:27 10° ESE daylight
01 Mar - 14:40:06 10° W 14:51:35 45° SSW 15:08:50 10° SE daylight
01 Mar - 16:55:08 10° W 17:07:21 27° SSW 17:22:19 10° SSE daylight
02 Mar - 09:19:14 10° S 09:23:50 20° SE 09:30:15 10° ESE visible
02 Mar - 11:28:41 10° SW 11:36:13 43° SSE 11:48:59 10° ESE visible
02 Mar - 13:40:33 10° WSW 13:50:38 47° S 14:06:52 10° ESE daylight
02 Mar - 15:54:20 10° W 16:06:10 33° SSW 16:22:05 10° SSE daylight
02 Mar - 18:14:17 10° WSW 18:21:31 14° SW 18:29:19 10° SSW daylight
03 Mar - 08:23:43 10° SE 08:24:50 10° SE 08:26:01 10° SE visible
03 Mar - 10:30:09 10° SW 10:36:24 35° SSE 10:46:38 10° E visible
03 Mar - 12:41:19 10° WSW 12:50:00 47° S 13:04:39 10° ESE daylight
03 Mar - 14:54:11 10° W 15:05:05 37° SSW 15:21:04 10° SE daylight
03 Mar - 17:10:41 10° WSW 17:20:32 19° SW 17:32:11 10° S daylight
04 Mar - 09:32:00 10° SSW 09:36:59 25° SSE 09:44:26 10° E visible
04 Mar - 11:42:21 10° WSW 11:49:45 44° S 12:02:22 10° ESE visible
04 Mar - 13:54:31 10° WSW 14:04:12 41° SSW 14:19:29 10° SE daylight
04 Mar - 16:09:08 10° WSW 16:19:31 24° SSW 16:32:58 10° SSE daylight
05 Mar - 08:34:33 10° S 08:37:52 16° SE 08:42:06 10° ESE visible
05 Mar - 10:43:39 10° SW 10:49:52 38° SSE 11:00:13 10° ESE visible
05 Mar - 12:55:11 10° WSW 13:03:37 42° S 13:17:35 10° SE daylight
05 Mar - 15:08:37 10° WSW 15:18:34 29° SSW 15:32:39 10° SSE daylight
05 Mar - 17:29:21 10° SW 17:33:47 11° SW 17:38:34 10° SSW daylight
06 Mar - 09:45:14 10° SW 09:50:21 30° SSE 09:58:17 10° ESE visible
06 Mar - 11:56:10 10° WSW 12:03:22 42° S 12:15:34 10° ESE daylight
06 Mar - 14:08:43 10° WSW 14:17:48 33° SSW 14:31:37 10° SE daylight
06 Mar - 16:25:09 10° WSW 16:32:54 16° SW 16:42:16 10° S daylight
07 Mar - 08:47:11 10° SSW 08:51:07 21° SSE 08:56:31 10° ESE visible
07 Mar - 10:57:20 10° WSW 11:03:27 39° S 11:13:37 10° ESE visible
07 Mar - 13:09:15 10° WSW 13:17:17 36° SSW 13:30:08 10° SE daylight
07 Mar - 15:23:41 10° WSW 15:32:06 21° SSW 15:43:12 10° SSE daylight
08 Mar - 07:50:05 10° S 07:52:05 12° SE 07:54:22 10° ESE visible
08 Mar - 09:58:45 10° SW 10:03:51 33° SSE 10:11:54 10° ESE visible
08 Mar - 12:10:06 10° WSW 12:17:03 37° S 12:28:29 10° SE daylight
08 Mar - 14:23:19 10° WSW 14:31:26 25° SSW 14:43:00 10° SSE daylight
09 Mar - 09:00:24 10° SW 09:04:32 25° SSE 09:10:27 10° ESE visible
09 Mar - 11:11:12 10° WSW 11:17:08 36° S 11:26:50 10° ESE visible
09 Mar - 13:23:35 10° WSW 13:30:59 28° SSW 13:42:09 10° SSE daylight
09 Mar - 15:40:39 10° SW 15:45:40 13° SSW 15:51:31 10° S daylight
10 Mar - 08:02:25 10° SSW 08:05:25 17° SSE 08:09:08 10° ESE visible
10 Mar - 10:12:28 10° WSW 10:17:29 33° S 10:25:21 10° ESE visible
10 Mar - 12:24:16 10° WSW 12:30:47 30° SSW 12:41:00 10° SE daylight
10 Mar - 14:38:52 10° WSW 14:45:06 17° SSW 14:53:07 10° S daylight
